Home   Weather   Saint-Paul   Past weeks
Flag for Réunion (French)

Past Weather in Saint-Paul, Réunion (French) — Yesterday and Last 2 Weeks

Now
77 °F

Clear.


Feels Like: 78 °F
Forecast: 86 / 75 °F
Wind: 6 mph from South

Location: Saint-Denis / Gillot

Current Time: Dec 7, 2019 at 9:00:05 pm

Latest Report: Dec 7, 2019 at 8:30 pm


Visibility: 10 mi

Pressure: 29.89 "Hg

Humidity: 83%

Dew Point: 72 °F

Location of Saint-PaulLocation

Past Weather in Saint-Paul — Graph

°F

Saint-Paul Temperature Yesterday

Maximum temperature yesterday: 88 °F (at 1:00 pm)
Minimum temperature yesterday: 72 °F (at 3:00 am)
Average temperature yesterday: 79 °F

High & Low Weather Summary for the Past Weeks

 TemperatureHumidityPressure
High90 °F (Dec 7, 2:00 pm)94% (Nov 23, 5:00 am)30.07 "Hg (Nov 23, 5:00 am)
Low68 °F (Dec 5, 5:00 am)45% (Dec 1, 10:00 am)29.80 "Hg (Dec 7, 3:30 pm)
Average79 °F73%29.94 "Hg
* Reported Nov 22 7:00 pm — Dec 7 7:30 pm, Saint-Paul. Weather by CustomWeather, © 2019

Note: Actual official high and low records may vary slightly from our data, if they occured in-between our weather recording intervals... More about our weather records

Saint-Paul Weather History for the Previous 24 Hours

Scroll right to see more
 ConditionsComfort  
Time TempWeatherWind HumidityBarometerVisibility
7:30 pm
Sat, Dec 7
81 °FClear.3 mph70%29.89 "Hg10 mi
7:00 pm81 °FClear.3 mph70%29.86 "Hg10 mi
6:30 pm82 °FSunny.5 mph70%29.86 "Hg10 mi
6:00 pm82 °FPassing clouds.7 mph70%29.83 "HgN/A
5:30 pm84 °FBroken clouds.7 mph70%29.83 "HgN/A
5:00 pm86 °FPassing clouds.5 mph66%29.83 "HgN/A
4:30 pm88 °FPassing clouds.6 mph62%29.80 "HgN/A
4:00 pm88 °FSunny.7 mph66%29.80 "Hg10 mi
3:30 pm88 °FSunny.7 mph62%29.80 "Hg10 mi
3:00 pm88 °FPassing clouds.7 mph66%29.83 "HgN/A
2:30 pm88 °FSunny.7 mph62%29.83 "Hg10 mi
2:00 pm90 °FPassing clouds.7 mph59%29.83 "HgN/A
1:30 pm88 °FPassing clouds.7 mph62%29.83 "HgN/A
1:00 pm88 °FPassing clouds.7 mph62%29.83 "HgN/A
12:30 pm88 °FScattered clouds.8 mph62%29.86 "HgN/A
12:00 pm88 °FSunny.7 mph62%29.86 "Hg10 mi
11:30 am88 °FSunny.6 mph62%29.86 "Hg10 mi
11:00 am88 °FSunny.7 mph62%29.86 "Hg10 mi
10:30 am86 °FSunny.6 mph66%29.86 "Hg10 mi
10:00 am86 °FPassing clouds.5 mph66%29.86 "HgN/A
9:30 am86 °FSunny.6 mph66%29.89 "Hg10 mi
9:00 am86 °FSunny.5 mph66%29.89 "Hg10 mi
8:30 am84 °FSunny.5 mph70%29.89 "Hg10 mi
8:00 am84 °FPassing clouds.3 mph70%29.89 "HgN/A
7:30 am82 °FPassing clouds.5 mph70%29.89 "HgN/A
7:00 am81 °FSunny.6 mph70%29.89 "Hg10 mi
6:30 am75 °FSunny.6 mph78%29.89 "Hg10 mi
6:00 am73 °FSunny.6 mph83%29.86 "Hg10 mi
5:30 am72 °FSunny.6 mph88%29.86 "Hg10 mi
5:00 am72 °FClear.6 mph88%29.86 "Hg10 mi
4:30 am72 °FClear.7 mph88%29.86 "Hg10 mi
4:00 am72 °FClear.7 mph83%29.86 "Hg10 mi
3:30 am72 °FClear.7 mph83%29.86 "Hg10 mi
3:00 am72 °FClear.7 mph83%29.86 "Hg10 mi
2:30 am73 °FClear.8 mph78%29.86 "Hg10 mi
2:00 am73 °FClear.6 mph78%29.86 "Hg10 mi
1:30 am73 °FClear.6 mph78%29.89 "Hg10 mi
1:00 am73 °FClear.7 mph78%29.89 "Hg10 mi
12:30 am73 °FClear.6 mph78%29.92 "Hg10 mi
12:00 am73 °FClear.5 mph74%29.92 "Hg10 mi
11:30 pm
Fri, Dec 6
75 °FClear.7 mph69%29.92 "Hg10 mi
11:00 pm75 °FPassing clouds.6 mph74%29.92 "HgN/A
10:30 pm75 °FClear.7 mph78%29.95 "Hg10 mi
10:00 pm75 °FPassing clouds.5 mph78%29.95 "HgN/A
9:30 pm75 °FClear.6 mph78%29.95 "Hg10 mi
9:00 pm77 °FClear.6 mph79%29.92 "Hg10 mi
Weather by CustomWeather, © 2019

See weather overview

Advertising